TimeCST,TemperatureF,Dew PointF,Humidity,Sea Level PressureIn,VisibilityMPH,Wind Direction,Wind SpeedMPH,Gust SpeedMPH,PrecipitationIn,Events,Conditions,WindDirDegrees,DateUTC
12:58 AM,34.0,33.1,96,30.31,10.0,Calm,Calm,-,N/A,,Clear,0,2012-11-19 06:58:00
1:58 AM,34.0,33.1,96,30.30,10.0,Calm,Calm,-,N/A,,Clear,0,2012-11-19 07:58:00
2:58 AM,33.1,32.0,96,30.29,10.0,Calm,Calm,-,N/A,,Clear,0,2012-11-19 08:58:00
3:58 AM,32.0,30.9,96,30.29,10.0,Calm,Calm,-,N/A,,Clear,0,2012-11-19 09:58:00
4:51 AM,32.0,30.2,93,30.29,9.0,Calm,Calm,-,N/A,,Scattered Clouds,0,2012-11-19 10:51:00
4:58 AM,32.0,30.9,96,30.29,9.0,Calm,Calm,-,N/A,,Scattered Clouds,0,2012-11-19 10:58:00
5:58 AM,33.1,32.0,96,30.30,9.0,Calm,Calm,-,N/A,,Clear,0,2012-11-19 11:58:00
6:58 AM,33.1,32.0,96,30.31,7.0,Calm,Calm,-,N/A,,Clear,0,2012-11-19 12:58:00
7:58 AM,39.9,39.0,97,30.32,10.0,NW,4.6,-,N/A,,Clear,310,2012-11-19 13:58:00
8:58 AM,46.0,43.0,89,30.32,10.0,North,3.5,-,N/A,,Clear,350,2012-11-19 14:58:00
9:58 AM,50.0,44.1,80,30.32,10.0,Calm,Calm,-,N/A,,Clear,0,2012-11-19 15:58:00
10:58 AM,57.9,46.0,65,30.31,10.0,NW,3.5,-,N/A,,Clear,320,2012-11-19 16:58:00
11:58 AM,63.0,43.0,48,30.28,10.0,NW,4.6,-,N/A,,Clear,310,2012-11-19 17:58:00
12:58 PM,64.9,43.0,45,30.25,10.0,Variable,4.6,-,N/A,,Clear,0,2012-11-19 18:58:00
1:58 PM,66.0,39.0,37,30.23,10.0,Calm,Calm,-,N/A,,Clear,0,2012-11-19 19:58:00
2:58 PM,66.9,37.9,34,30.21,10.0,North,3.5,-,N/A,,Clear,350,2012-11-19 20:58:00
3:58 PM,64.0,42.1,45,30.19,10.0,ENE,5.8,-,N/A,,Clear,60,2012-11-19 21:58:00
4:58 PM,54.0,46.0,75,30.20,10.0,Calm,Calm,-,N/A,,Clear,0,2012-11-19 22:58:00
5:58 PM,50.0,45.0,83,30.21,10.0,Calm,Calm,-,N/A,,Clear,0,2012-11-19 23:58:00
6:58 PM,46.0,44.1,93,30.23,10.0,Calm,Calm,-,N/A,,Clear,0,2012-11-20 00:58:00
7:58 PM,43.0,42.1,97,30.22,10.0,Calm,Calm,-,N/A,,Clear,0,2012-11-20 01:58:00
8:58 PM,43.0,42.1,97,30.22,10.0,Calm,Calm,-,N/A,,Clear,0,2012-11-20 02:58:00
9:58 PM,42.1,39.9,92,30.22,10.0,Calm,Calm,-,N/A,,Clear,0,2012-11-20 03:58:00
10:58 PM,41.0,39.9,96,30.21,9.0,Calm,Calm,-,N/A,,Clear,0,2012-11-20 04:58:00
11:58 PM,39.0,37.9,96,30.19,10.0,Calm,Calm,-,N/A,,Clear,0,2012-11-20 05:58:00